Weather History for KCLK - October, 2011

Change the Weather History Date:

Friday, October 21, 2011

  Actual Average Record
Temperature  
Mean Temperature 55 °F -  
Max Temperature 75 °F - - ()
Min Temperature 35 °F - - ()
Degree Days  
Heating Degree Days 10    
Growing Degree Days 5 (Base 50)    
Moisture  
Dew Point 33 °F    
Average Humidity 46    
Maximum Humidity 87    
Minimum Humidity 18    
Precipitation  
Precipitation 0.00 in - - ()
Sea Level Pressure  
Sea Level Pressure 30.11 in    
Wind  
Wind Speed 3 mph (SE)    
Max Wind Speed 8 mph    
Max Gust Speed -    
Visibility 10 miles    
Events      
T = Trace of Precipitation, MM = Missing Value Source: NWS Daily Summary

Daily Weather History Graph

Daily Weather History Graph

Search for Another Location

Airport or City:

Trip Planner

Search our weather history database for the weather conditions in past years. The results will help you decide how hot, cold, wet, or windy it might be!

Date:

Astronomy

Oct. 21, 2011 Rise Set
Actual Time 7:47 AM CDT 6:53 PM CDT
Civil Twilight 7:21 AM CDT 7:18 PM CDT
Nautical Twilight 6:51 AM CDT 7:48 PM CDT
Astronomical Twilight 6:22 AM CDT 8:18 PM CDT
Moon 1:51 AM CDT (10/21) 3:27 PM CDT (10/21)
Length of Visible Light 11h 57m
Length of Day
11h 05m
Waning Crescent, 33% of the Moon is Illuminated
Oct 21
Waning Crescent
Oct 26
New
Nov 2
First Quarter
Nov 10
Full
Nov 18
Last Quarter

Hourly Weather History & Observations

Time (CDT) Temp. Windchill Dew Point Humidity Pressure Visibility Wind Dir Wind Speed Gust Speed Precip Events Conditions
12:15 AM 51.8 °F - 32.0 °F 47% 30.09 in 10.0 mi SE 5.8 mph - N/A   Clear
12:35 AM 50.0 °F - 32.0 °F 50% 30.08 in 10.0 mi SE 5.8 mph - N/A   Clear
12:55 AM 50.0 °F - 32.0 °F 50% 30.09 in 10.0 mi SE 5.8 mph - N/A   Clear
1:15 AM 50.0 °F - 32.0 °F 50% 30.09 in 10.0 mi SE 5.8 mph - N/A   Clear
1:35 AM 50.0 °F - 32.0 °F 50% 30.09 in 10.0 mi SSE 3.5 mph - N/A   Clear
1:55 AM 46.4 °F - 32.0 °F 57% 30.09 in 10.0 mi Calm Calm - N/A   Clear
2:15 AM 46.4 °F - 32.0 °F 57% 30.09 in 10.0 mi Calm Calm - N/A   Clear
2:35 AM 48.2 °F - 32.0 °F 54% 30.10 in 10.0 mi Calm Calm - N/A   Clear
2:55 AM 48.2 °F - 32.0 °F 54% 30.10 in 10.0 mi Calm Calm - N/A   Clear
3:15 AM 48.2 °F - 32.0 °F 54% 30.09 in 10.0 mi SE 3.5 mph - N/A   Clear
3:35 AM 46.4 °F - 32.0 °F 57% 30.09 in 10.0 mi Calm Calm - N/A   Clear
3:55 AM 46.4 °F - 32.0 °F 57% 30.10 in 10.0 mi Calm Calm - N/A   Clear
4:15 AM 41.0 °F - 32.0 °F 70% 30.10 in 10.0 mi Calm Calm - N/A   Clear
4:35 AM 41.0 °F - 32.0 °F 70% 30.10 in 10.0 mi Calm Calm - N/A   Clear
4:55 AM 42.8 °F - 32.0 °F 66% 30.10 in 10.0 mi Calm Calm - N/A   Clear
5:15 AM 39.2 °F - 32.0 °F 75% 30.10 in 10.0 mi Calm Calm - N/A   Clear
5:35 AM 37.4 °F 34.9 °F 32.0 °F 81% 30.12 in 10.0 mi NW 3.5 mph - N/A   Clear
5:55 AM 37.4 °F - 32.0 °F 81% 30.12 in 10.0 mi Calm Calm - N/A   Clear
6:15 AM 41.0 °F - 32.0 °F 70% 30.12 in 10.0 mi Calm Calm - N/A   Clear
6:35 AM 39.2 °F 37.0 °F 32.0 °F 75% 30.12 in 10.0 mi North 3.5 mph - N/A   Clear
7:15 AM 41.0 °F 38.0 °F 33.8 °F 76% 30.12 in 10.0 mi NE 4.6 mph - N/A   Clear
7:35 AM 39.2 °F - 32.0 °F 75% 30.13 in 10.0 mi Calm Calm - N/A   Clear
7:55 AM 35.6 °F - 32.0 °F 87% 30.14 in 10.0 mi Calm Calm - N/A   Clear
8:15 AM 37.4 °F - 32.0 °F 81% 30.14 in 10.0 mi Calm Calm - N/A   Clear
8:35 AM 37.4 °F - 33.8 °F 87% 30.15 in 10.0 mi Calm Calm - N/A   Clear
8:55 AM 41.0 °F - 33.8 °F 76% 30.16 in 10.0 mi Calm Calm - N/A   Clear
9:15 AM 42.8 °F - 35.6 °F 76% 30.17 in 10.0 mi Calm Calm - N/A   Clear
9:55 AM 50.0 °F - 35.6 °F 58% 30.17 in 10.0 mi Calm Calm - N/A   Clear
10:15 AM 51.8 °F - 35.6 °F 54% 30.17 in 10.0 mi Calm Calm - N/A   Clear
10:55 AM 57.2 °F - 33.8 °F 41% 30.17 in 10.0 mi Calm Calm - N/A   Clear
11:15 AM 59.0 °F - 32.0 °F 36% 30.17 in 10.0 mi Calm Calm - N/A   Clear
11:35 AM 60.8 °F - 33.8 °F 36% 30.17 in 10.0 mi Calm Calm - N/A   Clear
11:55 AM 60.8 °F - 33.8 °F 36% 30.17 in 10.0 mi Calm Calm - N/A   Clear
12:15 PM 62.6 °F - 32.0 °F 32% 30.17 in 10.0 mi Calm Calm - N/A   Clear
12:35 PM 64.4 °F - 32.0 °F 30% 30.16 in 10.0 mi Calm Calm - N/A   Clear
12:55 PM 68.0 °F - 32.0 °F 26% 30.15 in 10.0 mi Calm Calm - N/A   Clear
1:35 PM 69.8 °F - 32.0 °F 25% 30.14 in 10.0 mi Calm Calm - N/A   Clear
1:55 PM 69.8 °F - 30.2 °F 23% 30.12 in 10.0 mi Calm Calm - N/A   Clear
2:35 PM 71.6 °F - 30.2 °F 22% 30.11 in 10.0 mi Calm Calm - N/A   Clear
2:55 PM 71.6 °F - 30.2 °F 22% 30.10 in 10.0 mi South 3.5 mph - N/A   Clear
3:15 PM 73.4 °F - 28.4 °F 19% 30.09 in 10.0 mi South 8.1 mph - N/A   Clear
3:35 PM 73.4 °F - 30.2 °F 20% 30.08 in 10.0 mi SE 4.6 mph - N/A   Clear
3:55 PM 73.4 °F - 28.4 °F 19% 30.08 in 10.0 mi East 3.5 mph - N/A   Clear
4:15 PM 75.2 °F - 28.4 °F 18% 30.07 in 10.0 mi Calm Calm - N/A   Clear
4:35 PM 75.2 °F - 28.4 °F 18% 30.07 in 10.0 mi East 4.6 mph - N/A   Clear
4:55 PM 75.2 °F - 28.4 °F 18% 30.06 in 10.0 mi SE 3.5 mph - N/A   Clear
5:15 PM 73.4 °F - 28.4 °F 19% 30.06 in 10.0 mi ESE 4.6 mph - N/A   Clear
5:35 PM 73.4 °F - 30.2 °F 20% 30.06 in 10.0 mi ESE 4.6 mph - N/A   Clear
5:55 PM 73.4 °F - 30.2 °F 20% 30.07 in 10.0 mi ESE 5.8 mph - N/A   Clear
6:15 PM 71.6 °F - 30.2 °F 22% 30.07 in 10.0 mi ESE 3.5 mph - N/A   Clear
6:35 PM 69.8 °F - 32.0 °F 25% 30.07 in 10.0 mi ESE 3.5 mph - N/A   Clear
6:55 PM 68.0 °F - 32.0 °F 26% 30.07 in 10.0 mi ESE 4.6 mph - N/A   Clear
7:15 PM 66.2 °F - 33.8 °F 30% 30.07 in 10.0 mi ESE 5.8 mph - N/A   Clear
7:35 PM 64.4 °F - 33.8 °F 32% 30.08 in 10.0 mi SE 5.8 mph - N/A   Clear
7:55 PM 62.6 °F - 35.6 °F 37% 30.08 in 10.0 mi SE 6.9 mph - N/A   Clear
8:15 PM 62.6 °F - 35.6 °F 37% 30.08 in 10.0 mi SE 5.8 mph - N/A   Clear
8:35 PM 62.6 °F - 35.6 °F 37% 30.09 in 10.0 mi ESE 5.8 mph - N/A   Clear
8:55 PM 60.8 °F - 37.4 °F 42% 30.09 in 10.0 mi SE 4.6 mph - N/A   Clear
9:15 PM 60.8 °F - 37.4 °F 42% 30.09 in 10.0 mi SE 5.8 mph - N/A   Clear
9:35 PM 59.0 °F - 39.2 °F 48% 30.09 in 10.0 mi ESE 5.8 mph - N/A   Clear
9:55 PM 59.0 °F - 41.0 °F 51% 30.10 in 10.0 mi ESE 5.8 mph - N/A   Clear
10:15 PM 59.0 °F - 41.0 °F 51% 30.10 in 10.0 mi SE 3.5 mph - N/A   Clear
10:35 PM 59.0 °F - 42.8 °F 55% 30.10 in 10.0 mi SE 4.6 mph - N/A   Clear
10:55 PM 59.0 °F - 44.6 °F 59% 30.10 in 10.0 mi SE 3.5 mph - N/A   Clear
11:15 PM 57.2 °F - 44.6 °F 63% 30.09 in 10.0 mi SE 5.8 mph - N/A   Clear
11:35 PM 55.4 °F - 44.6 °F 67% 30.10 in 10.0 mi SSE 6.9 mph - N/A   Clear
11:55 PM 53.6 °F - 44.6 °F 72% 30.09 in 10.0 mi SSE 4.6 mph - N/A   Clear